When you browse on this site, cookies collect data to enhance your experience and personalize the content and advertising you see.
Visit our Privacy Policy to learn more. By continuing to use the site, you agree to this use of cookies and data.
  • In Czech Republic
  • List of Countries
  • For 7 days
  • Water Temperature
  • Weather Map
  • Weather Widgets
  • user-avatar
    Login

    Hourly Weather Barra

    Today, 23 August, Friday

    Time Temperature Precipitation Wind Pressure Humidity
    00:00 +14°C° 0 mm 1 mps 752 mmHg 60%
    01:00 +14°C° 0 mm 1 mps 752 mmHg 61%
    02:00 +14°C° 0 mm 2 mps 752 mmHg 61%
    03:00 +13°C° 0 mm 2 mps 751 mmHg 61%
    04:00 +13°C° 0 mm 2 mps 751 mmHg 61%
    05:00 +13°C° 0 mm 2 mps 752 mmHg 58%
    06:00 +13°C° 0 mm 2 mps 752 mmHg 56%
    07:00 +13°C° 0 mm 2 mps 752 mmHg 53%
    08:00 +17°C° 0 mm 2 mps 752 mmHg 45%
    09:00 +20°C° 0 mm 2 mps 752 mmHg 37%
    10:00 +25°C° 0 mm 2 mps 753 mmHg 26%
    11:00 +25°C° 0 mm 3 mps 752 mmHg 27%
    12:00 +25°C° 0 mm 4 mps 752 mmHg 29%
    13:00 +25°C° 0 mm 4 mps 751 mmHg 31%
    14:00 +25°C° 0 mm 4 mps 751 mmHg 36%
    15:00 +23°C° 0 mm 4 mps 751 mmHg 42%
    16:00 +23°C° 0 mm 4 mps 751 mmHg 49%
    17:00 +21°C° 0 mm 3 mps 752 mmHg 60%
    18:00 +19°C° 0 mm 3 mps 752 mmHg 71%
    19:00 +17°C° 0 mm 2 mps 752 mmHg 82%
    20:00 +17°C° 0 mm 2 mps 753 mmHg 84%
    21:00 +16°C° 0 mm 2 mps 753 mmHg 87%
    22:00 +16°C° 0 mm 2 mps 753 mmHg 89%
    23:00 +16°C° 0 mm 2 mps 753 mmHg 88%

    Tomorrow, 24 August, Saturday

    Time Temperature Precipitation Wind Pressure Humidity
    00:00 +16°C° 0 mm 2 mps 753 mmHg 88%
    01:00 +16°C° 0 mm 2 mps 753 mmHg 87%
    02:00 +16°C° 0 mm 2 mps 753 mmHg 88%
    03:00 +16°C° 0 mm 2 mps 752 mmHg 89%
    04:00 +16°C° 0 mm 3 mps 752 mmHg 90%
    05:00 +17°C° 0.1 mm 3 mps 753 mmHg 88%
    06:00 +17°C° 0.1 mm 3 mps 753 mmHg 85%
    07:00 +18°C° 0.1 mm 3 mps 753 mmHg 82%
    08:00 +19°C° 0 mm 3 mps 753 mmHg 73%
    09:00 +21°C° 0 mm 3 mps 753 mmHg 65%
    10:00 +24°C° 0 mm 3 mps 753 mmHg 56%
    11:00 +24°C° 0.1 mm 3 mps 753 mmHg 59%
    12:00 +24°C° 0.1 mm 2 mps 752 mmHg 62%
    13:00 +23°C° 0.1 mm 2 mps 752 mmHg 65%
    14:00 +24°C° 0 mm 2 mps 751 mmHg 61%
    15:00 +24°C° 0 mm 2 mps 751 mmHg 58%
    16:00 +24°C° 0 mm 2 mps 750 mmHg 54%
    17:00 +21°C° 0 mm 2 mps 751 mmHg 63%
    18:00 +19°C° 0 mm 2 mps 751 mmHg 73%
    19:00 +19°C° 0 mm 1 mps 752 mmHg 82%
    20:00 +18°C° 0 mm 1 mps 752 mmHg 83%
    21:00 +17°C° 0 mm 2 mps 752 mmHg 84%
    22:00 +17°C° 0 mm 2 mps 753 mmHg 85%
    23:00 +17°C° 0.1 mm 2 mps 752 mmHg 86%

    Day after tomorrow, 25 August, Sunday

    Time Temperature Precipitation Wind Pressure Humidity
    00:00 +17°C° 0.1 mm 2 mps 752 mmHg 87%
    01:00 +17°C° 0.1 mm 2 mps 751 mmHg 88%
    02:00 +18°C° 0.3 mm 3 mps 751 mmHg 89%
    03:00 +18°C° 0.3 mm 3 mps 751 mmHg 90%
    04:00 +18°C° 0.3 mm 3 mps 751 mmHg 90%
    05:00 +19°C° 0.4 mm 3 mps 751 mmHg 91%
    06:00 +19°C° 0.4 mm 3 mps 751 mmHg 91%
    07:00 +19°C° 0.4 mm 3 mps 752 mmHg 91%
    08:00 +20°C° 0.4 mm 3 mps 752 mmHg 89%
    09:00 +20°C° 0.4 mm 3 mps 752 mmHg 87%
    10:00 +21°C° 0.4 mm 4 mps 752 mmHg 84%
    11:00 +22°C° 0.2 mm 4 mps 751 mmHg 80%
    12:00 +22°C° 0.2 mm 4 mps 751 mmHg 76%
    13:00 +23°C° 0.2 mm 4 mps 750 mmHg 71%
    14:00 +24°C° 0.1 mm 3 mps 750 mmHg 69%
    15:00 +24°C° 0.1 mm 3 mps 750 mmHg 67%
    16:00 +24°C° 0.1 mm 3 mps 749 mmHg 65%
    17:00 +21°C° 0 mm 3 mps 750 mmHg 72%
    18:00 +20°C° 0 mm 2 mps 750 mmHg 79%
    19:00 +18°C° 0 mm 2 mps 750 mmHg 85%
    20:00 +19°C° 0 mm 1 mps 751 mmHg 87%
    21:00 +18°C° 0 mm 1 mps 751 mmHg 89%
    22:00 +18°C° 0 mm 1 mps 751 mmHg 91%
    23:00 +17°C° 0.1 mm 2 mps 751 mmHg 91%

    26 August, Monday

    Time Temperature Precipitation Wind Pressure Humidity
    00:00 +17°C° 0.1 mm 2 mps 751 mmHg 91%
    01:00 +18°C° 0.1 mm 2 mps 750 mmHg 91%
    02:00 +17°C° 0.1 mm 2 mps 750 mmHg 92%
    03:00 +17°C° 0.1 mm 2 mps 750 mmHg 93%
    04:00 +17°C° 0.1 mm 2 mps 750 mmHg 94%
    05:00 +17°C° 0.1 mm 2 mps 751 mmHg 94%
    06:00 +17°C° 0.1 mm 2 mps 751 mmHg 94%
    07:00 +17°C° 0.1 mm 2 mps 752 mmHg 94%
    08:00 +19°C° 0.1 mm 3 mps 752 mmHg 86%
    09:00 +21°C° 0.1 mm 3 mps 752 mmHg 77%
    10:00 +24°C° 0.1 mm 3 mps 752 mmHg 69%
    11:00 +25°C° 0.1 mm 3 mps 751 mmHg 65%
    12:00 +25°C° 0.1 mm 4 mps 751 mmHg 61%
    13:00 +26°C° 0.1 mm 4 mps 750 mmHg 57%
    14:00 +25°C° 0 mm 4 mps 750 mmHg 59%
    15:00 +25°C° 0 mm 3 mps 749 mmHg 60%
    16:00 +24°C° 0 mm 3 mps 749 mmHg 62%
    17:00 +23°C° 0 mm 2 mps 750 mmHg 70%
    18:00 +20°C° 0 mm 2 mps 750 mmHg 79%
    19:00 +19°C° 0 mm 1 mps 750 mmHg 88%
    20:00 +18°C° 0 mm 2 mps 751 mmHg 90%
    21:00 +18°C° 0 mm 2 mps 751 mmHg 91%
    22:00 +17°C° 0 mm 2 mps 752 mmHg 92%
    23:00 +17°C° 0 mm 2 mps 752 mmHg 93%

    27 August, Tuesday

    Time Temperature Precipitation Wind Pressure Humidity
    00:00 +17°C° 0 mm 2 mps 752 mmHg 93%
    01:00 +17°C° 0 mm 2 mps 752 mmHg 93%
    02:00 +17°C° 0 mm 2 mps 751 mmHg 93%
    03:00 +16°C° 0 mm 2 mps 751 mmHg 94%
    04:00 +16°C° 0 mm 2 mps 751 mmHg 94%
    05:00 +16°C° 0 mm 2 mps 751 mmHg 93%
    06:00 +16°C° 0 mm 2 mps 752 mmHg 93%
    07:00 +16°C° 0 mm 2 mps 752 mmHg 93%
    08:00 +19°C° 0 mm 3 mps 752 mmHg 81%
    09:00 +21°C° 0 mm 3 mps 753 mmHg 68%
    10:00 +24°C° 0 mm 3 mps 753 mmHg 56%
    11:00 +25°C° 0 mm 3 mps 752 mmHg 53%
    12:00 +25°C° 0 mm 4 mps 751 mmHg 49%
    13:00 +26°C° 0 mm 4 mps 751 mmHg 45%
    14:00 +25°C° 0 mm 4 mps 750 mmHg 47%
    15:00 +25°C° 0 mm 4 mps 750 mmHg 48%
    16:00 +25°C° 0 mm 3 mps 750 mmHg 49%
    17:00 +22°C° 0 mm 3 mps 750 mmHg 58%
    18:00 +20°C° 0 mm 2 mps 751 mmHg 66%
    19:00 +18°C° 0 mm 2 mps 751 mmHg 75%
    20:00 +17°C° 0 mm 2 mps 752 mmHg 78%
    21:00 +17°C° 0 mm 2 mps 752 mmHg 81%
    22:00 +16°C° 0 mm 2 mps 752 mmHg 84%
    23:00 +16°C° 0 mm 2 mps 752 mmHg 85%

    28 August, Wednesday

    Time Temperature Precipitation Wind Pressure Humidity
    00:00 +16°C° 0 mm 2 mps 752 mmHg 86%
    01:00 +16°C° 0 mm 2 mps 752 mmHg 87%
    02:00 +16°C° 0 mm 2 mps 751 mmHg 87%
    03:00 +16°C° 0 mm 2 mps 751 mmHg 88%
    04:00 +17°C° 0 mm 2 mps 750 mmHg 89%
    05:00 +17°C° 0 mm 2 mps 751 mmHg 89%
    06:00 +17°C° 0 mm 2 mps 751 mmHg 89%
    07:00 +17°C° 0 mm 2 mps 752 mmHg 90%
    08:00 +19°C° 0 mm 2 mps 752 mmHg 79%
    09:00 +21°C° 0 mm 2 mps 752 mmHg 68%
    10:00 +25°C° 0 mm 3 mps 752 mmHg 58%
    11:00 +25°C° 0 mm 3 mps 752 mmHg 55%
    12:00 +26°C° 0 mm 3 mps 751 mmHg 53%
    13:00 +26°C° 0 mm 4 mps 750 mmHg 50%
    14:00 +26°C° 0 mm 3 mps 750 mmHg 51%
    15:00 +25°C° 0 mm 3 mps 750 mmHg 52%
    16:00 +25°C° 0 mm 3 mps 749 mmHg 53%
    17:00 +22°C° 0 mm 3 mps 750 mmHg 64%
    18:00 +20°C° 0 mm 2 mps 750 mmHg 75%
    19:00 +18°C° 0 mm 2 mps 751 mmHg 86%
    20:00 +17°C° 0 mm 2 mps 751 mmHg 88%
    21:00 +17°C° 0 mm 2 mps 751 mmHg 90%
    22:00 +18°C° 0 mm 1 mps 752 mmHg 92%
    23:00 +17°C° 0 mm 2 mps 751 mmHg 91%
    Show more